Buffalo, NY

5:05 PM EST on December 07, 2019 (GMT -0500)
Buffalo Niagara International

Weather History for KBUF - October, 2019

Change the Weather History Date:

Wednesday, October 9, 2019

  Actual Average Record
Temperature  
Mean Temperature 52 °F 53 °F  
Max Temperature 65 °F 62 °F 83 °F (2018)
Min Temperature 38 °F 45 °F 31 °F (1925)
Degree Days  
Heating Degree Days 13 12  
Month to date heating degree days 89 96  
Since 1 July heating degree days 134 258  
Cooling Degree Days 0 0  
Month to date cooling degree days 7 0  
Year to date cooling degree days 604 540  
Moisture  
Dew Point 41 °F    
Average Humidity 69    
Maximum Humidity 100    
Minimum Humidity 37    
Precipitation  
Precipitation 0.00 in 0.12 in 1.81 in (2017)
Month to date precipitation 1.32 1.11  
Year to date precipitation 35.97 30.17  
Snow  
Snow 0.00 in 0.10 in 0.40 in (1925)
Month to date snowfall 0.0 0.2  
Since 1 July snowfall 0.0 0.2  
Since 1 September snowfall 0.0 0.2  
Snow Depth 0.00 in    
Sea Level Pressure  
Sea Level Pressure 30.31 in    
Wind  
Wind Speed 7 mph (East)    
Max Wind Speed 14 mph    
Max Gust Speed 18 mph    
Visibility 10 miles    
Events      
T = Trace of Precipitation, MM = Missing Value Source: NWS Daily Summary

Daily Weather History Graph

Daily Weather History Graph

Search for Another Location

Airport or City:

Astronomy

Oct. 09, 2019 Rise Set
Actual Time 7:21 AM EDT 6:42 PM EDT
Civil Twilight 6:52 AM EDT 7:11 PM EDT
Nautical Twilight 6:19 AM EDT 7:43 PM EDT
Astronomical Twilight 5:46 AM EDT 8:16 PM EDT
Moon 5:21 PM EDT (10/9) 2:57 AM EDT (10/9)
Length of Visible Light 12h 18m
Length of Day
11h 21m
Waxing Gibbous, 85% of the Moon is Illuminated
Oct 9
Waxing Gibbous
Oct 13
Full
Oct 21
Last Quarter
Oct 27
New
Nov 4
First Quarter

Hourly Weather History & Observations

Time (EDT) Temp. Windchill Dew Point Humidity Pressure Visibility Wind Dir Wind Speed Gust Speed Precip Events Conditions
12:54 AM 45.0 °F 41.2 °F 41.0 °F 86% 30.30 in 10.0 mi East 6.9 mph - N/A   Clear
1:54 AM 44.1 °F 41.5 °F 39.0 °F 82% 30.31 in 10.0 mi ESE 4.6 mph - N/A   Clear
2:54 AM 44.1 °F 41.5 °F 37.9 °F 79% 30.30 in 10.0 mi East 4.6 mph - N/A   Clear
3:54 AM 42.1 °F 40.2 °F 37.9 °F 85% 30.30 in 10.0 mi SE 3.5 mph - N/A   Clear
4:54 AM 41.0 °F 39.0 °F 37.0 °F 86% 30.31 in 10.0 mi ESE 3.5 mph - N/A   Clear
5:54 AM 39.9 °F - 37.9 °F 93% 30.32 in 10.0 mi Calm Calm - N/A   Clear
6:54 AM 37.9 °F 35.5 °F 37.0 °F 97% 30.33 in 10.0 mi ENE 3.5 mph - N/A   Clear
7:54 AM 39.9 °F - 37.9 °F 93% 30.35 in 10.0 mi Calm Calm - N/A   Partly Cloudy
8:54 AM 45.0 °F - 39.9 °F 82% 30.35 in 10.0 mi Calm Calm - N/A   Partly Cloudy
9:54 AM 48.9 °F - 41.0 °F 74% 30.36 in 10.0 mi Calm Calm - N/A   Partly Cloudy
10:54 AM 55.9 °F - 43.0 °F 62% 30.35 in 10.0 mi Variable 5.8 mph - N/A   Partly Cloudy
11:54 AM 61.0 °F - 43.0 °F 52% 30.33 in 10.0 mi ENE 10.4 mph - N/A   Partly Cloudy
12:54 PM 63.0 °F - 42.1 °F 46% 30.32 in 10.0 mi ENE 10.4 mph - N/A   Partly Cloudy
1:54 PM 63.0 °F - 39.0 °F 41% 30.30 in 10.0 mi East 5.8 mph - N/A   Partly Cloudy
2:54 PM 64.9 °F - 37.9 °F 37% 30.28 in 10.0 mi ENE 13.8 mph - N/A   Partly Cloudy
3:54 PM 64.0 °F - 37.9 °F 38% 30.27 in 10.0 mi ENE 11.5 mph - N/A   Partly Cloudy
4:54 PM 63.0 °F - 41.0 °F 45% 30.26 in 10.0 mi ENE 12.7 mph - N/A   Partly Cloudy
5:54 PM 60.1 °F - 41.0 °F 49% 30.27 in 10.0 mi ENE 10.4 mph - N/A   Partly Cloudy
6:54 PM 55.9 °F - 45.0 °F 67% 30.28 in 10.0 mi ENE 13.8 mph - N/A   Partly Cloudy
7:54 PM 52.0 °F - 45.0 °F 77% 30.30 in 10.0 mi ENE 11.5 mph - N/A   Clear
8:54 PM 51.1 °F - 45.0 °F 80% 30.30 in 10.0 mi ENE 10.4 mph - N/A   Clear
9:54 PM 51.1 °F - 45.0 °F 80% 30.31 in 10.0 mi East 12.7 mph - N/A   Clear
10:54 PM 50.0 °F - 43.0 °F 77% 30.31 in 10.0 mi East 10.4 mph - N/A   Clear
11:54 PM 48.9 °F - 43.0 °F 80% 30.30 in 10.0 mi East 6.9 mph - N/A   Clear